Regional Weather Roundup
Issued by NWS Raleigh/Durham, NC

Home | Current Version | Previous Version | Text Only | Print | Product List | Glossary On
Versions: 1 2 3 4 5 6 7 8 9 10 11 12 13 14 15 16 17 18 19 20 21 22 23 24 25 26 27 28 29 30 31 32 33 34 35 36 37 38 39 40 41 42 43 44 45 46 47 48 49 50
000
ASUS42 KRAH 220410
RWRRAH
NORTH CAROLINA WEATHER ROUNDUP
NATIONAL WEATHER SERVICE RALEIGH NC
1200 AM EDT WED OCT 22 2014

NOTE: "FAIR" INDICATES FEW OR NO CLOUDS BELOW 12,000 FEET WITH NO
SIGNIFICANT WEATHER AND/OR OBSTRUCTIONS TO VISIBILITY.

NCZ001-053-055-056-065-067-220500-
WESTERN NORTH CAROLINA

CITY           SKY/WX    TMP DP  RH WIND       PRES   REMARKS
ASHEVILLE      CLEAR     48  34  58 N13G20    30.05R
JEFFERSON      PTCLDY    42  33  71 NW14G24   30.00S
MORGANTON      CLEAR     42  38  86 CALM      30.06S
HICKORY        CLEAR     49  38  65 N7        30.01S
RUTHERFORDTON  CLEAR     53  37  53 N7        30.02S
MOUNT AIRY     CLEAR     51  40  66 NW9       30.00F
BOONE          CLEAR     42  33  70 NW16G25   30.03S
$$

NCZ021-022-025-041-071-084-088-220500-
CENTRAL NORTH CAROLINA

CITY           SKY/WX    TMP DP  RH WIND       PRES   REMARKS
CHARLOTTE      CLEAR     54  37  52 N10       29.99S
GREENSBORO     PTCLDY    51  39  63 NW8       29.98S
WINSTON-SALEM  CLEAR     52  37  56 NW7       30.00F
RALEIGH-DURHAM MOCLDY    57  39  51 NW8       29.94F
FORT BRAGG     MOCLDY    60  43  53 N9        29.93S
FAYETTEVILLE   PTCLDY    61  43  51 N15G23    29.92S
BURLINGTON     CLEAR     52  39  61 NW8       29.97S
LAURINBURG     MOCLDY    60  41  49 N7        29.94S
$$

NCZ011-015-027-028-043-044-047-080-103-220500-
NORTHEASTERN NORTH CAROLINA

CITY           SKY/WX    TMP DP  RH WIND       PRES   REMARKS
ROCKY MT-WILSO CLOUDY    60  42  51 NW10      29.90F
GREENVILLE     MOCLDY    61  50  67 CALM      29.90F
WASHINGTON     MOCLDY    58  53  83 CALM      29.88F
ELIZABETH CITY RAIN      60  52  74 W10       29.86S
MANTEO         CLEAR     64  61  90 W3        29.82F
CAPE HATTERAS  CLEAR     67  62  84 W7        29.83F
$$

NCZ078-087-090-091-093-098-101-220500-
SOUTHEASTERN NORTH CAROLINA

CITY           SKY/WX    TMP DP  RH WIND       PRES   REMARKS
LUMBERTON      PTCLDY    61  46  57 N8        29.92S
GOLDSBORO      MOCLDY    62  50  65 NW12      29.88S
KINSTON        PTCLDY    62  48  62 NW6       29.90R
KENANSVILLE    PTCLDY    60  49  68 N6        29.90F
NEW BERN       MOCLDY    64  51  62 N12       29.87S
CHERRY POINT   CLEAR     62  57  83 W8        29.85F
BEAUFORT       CLEAR     67  60  78 W10       29.84F
JACKSONVILLE   MOCLDY    62  55  77 NW16      29.86S
WILMINGTON     CLEAR     62  58  86 W6        29.87F
$$




USA.gov is the U.S. government's official web portal to all federal, state and local government web resources and services.